Regional Weather Roundup
Issued by NWS

Home | Current Version | Previous Version | Graphics & Text | Print | Product List | Glossary Off
Versions: 1 2 3 4 5 6 7 8 9 10 11 12 13 14 15 16 17 18 19 20 21 22 23 24 25 26 27 28 29 30 31 32 33 34 35 36 37 38 39 40 41 42 43 44 45 46 47 48 49 50

610
ASUS43 KMKX 240511
RWRWI

WISCONSIN REGIONAL WEATHER ROUNDUP
NATIONAL WEATHER SERVICE MILWAUKEE/SULLIVAN WI
1200 AM CDT THU MAY 24 2018

NOTE: "FAIR" INDICATES FEW OR NO CLOUDS BELOW 12,000 FEET WITH NO
SIGNIFICANT WEATHER AND/OR OBSTRUCTIONS TO VISIBILITY.

WIZ001-002-006>008-014>016-023>028-240600-
NORTHWEST WISCONSIN

CITY           SKY/WX    TMP DP  RH WIND       PRES   REMARKS
SUPERIOR ARPT  FAIR      50  46  84 NE3       30.08F
ASHLAND        FAIR      53  52  96 CALM      30.10S
HAYWARD        FAIR      62  60  93 CALM      30.11F
SIREN          FAIR      70  60  70 S7        30.08F
CUMBERLAND     CLOUDY    66  59  77 S7        30.10F
RICE LAKE      MOCLDY    67  61  79 E5        30.13S
CHETEK         FAIR      65  62  89 CALM      30.11F
LADYSMITH      FAIR      66  59  78 SE3       30.15S
EAU CLAIRE     FAIR      70  62  76 SE8       30.10F
MENOMONIE      FAIR      68  62  80 SE5       30.10F
NEW RICHMOND   FAIR      70  60  71 SE8       30.08F
OSCEOLA        FAIR      70  61  74 SE6       30.10F
$$

WIZ003>005-009-010-017-018-240600-
NORTH CENTRAL WISCONSIN

CITY           SKY/WX    TMP DP  RH WIND       PRES   REMARKS
MANITOWISH WTR FAIR      55  55 100 CALM      30.15R
ARBOR VITAE    FAIR      62  59  89 CALM      30.15R
WOODRUFF       FAIR      62  59  89 CALM      30.15R
RHINELANDER    FAIR      64  60  87 SW3       30.17R
EAGLE RIVER    FAIR      63  56  76 SW3       30.15R
LAND O LAKES   FAIR      56  54  94 CALM      30.17R
PHILLIPS       FAIR      64  61  89 S3        30.14S
TOMAHAWK       FAIR      62  58  86 CALM      30.16R
MEDFORD        FAIR      63  59  87 S5        30.15S
MERRILL        FAIR      58  58 100 NE3       30.16R
$$

WIZ029-030-035-036-043>047-240600-
CENTRAL WISCONSIN

CITY           SKY/WX    TMP DP  RH WIND       PRES   REMARKS
WAUSAU         FAIR      64  61  90 CALM      30.13F
MOSINEE        FAIR      64  61  88 SW8       30.16F
MARSHFIELD     FAIR      64  61  90 S3        30.14F
STEVENS POINT  FAIR      59  59  99 CALM      30.17R
WAUPACA        FAIR      64  60  86 CALM      30.16S
WAUTOMA        FAIR      61  59  93 W5        30.17S
WISC RAPIDS    FAIR      64  61  90 S3        30.16S
CAMP DOUGLAS   FAIR      59  59 100 S5        30.15R
$$

WIZ011>013-019>022-031-037>040-048>050-240600-
NORTHEAST WISCONSIN

CITY           SKY/WX    TMP DP  RH WIND       PRES   REMARKS
ANTIGO         FAIR      61  57  87 CALM      30.18R
SHAWANO        FAIR      68  58  70 CALM      30.15R
OCONTO         FAIR      63  57  82 SW3       30.15R
STURGEON BAY   FAIR      65  51  60 S9        30.16R
GREEN BAY      FAIR      62  52  69 S5        30.16R
MANITOWOC      FAIR      62  48  60 SW6       30.17S
APPLETON       FAIR      63  52  67 S5        30.15S
CLINTONVILLE   FAIR      65  56  73 S5        30.16R
OSHKOSH        FAIR      63  56  78 S7        30.16S
$$

WIZ032>034-041-042-053>061-240600-
SOUTHWEST WISCONSIN

CITY           SKY/WX    TMP DP  RH WIND       PRES   REMARKS
LA CROSSE      FAIR      68  63  84 SE6       30.11F
SPARTA         FAIR      58  58  98 CALM      30.15S
VIROQUA        FAIR      67  63  87 SE6       30.16F
BOSCOBEL       FAIR      63  61  93 CALM      30.15S FOG
PRAIRIE DU CHI FAIR      66  62  85 CALM      30.13S
PLATTEVILLE    FAIR      68  61  79 E7        30.16F
$$

WIZ056-057-062-063-064-067-068-240600-
SOUTH CENTRAL WISCONSIN

CITY           SKY/WX    TMP DP  RH WIND       PRES   REMARKS
REEDSBURG      FAIR      64  64  98 CALM      30.16R
BARABOO/DELLS  FAIR      63  59  87 S3        30.16S
LONE ROCK      FAIR      64  62  93 CALM      30.16R
MINERAL POINT  FAIR      66  61  82 SE5       30.17S
MADISON        FAIR      64  60  87 CALM      30.16S
MIDDLETON      FAIR      62  61  97 CALM      30.17F
WATERTOWN      FAIR      61  58  90 CALM      30.18R
MONROE         FAIR      68  55  64 SE3       30.18R
JANESVILLE     FAIR      63  54  72 CALM      30.18S
$$

WIZ051-052-058>065-066-070>072-240600-
SOUTHEAST WISCONSIN

CITY           SKY/WX    TMP DP  RH WIND       PRES   REMARKS
MILWAUKEE      FAIR      62  49  62 SW5       30.19S
WAUKESHA       FAIR      57  48  72 S3        30.20S
MILWAUKEE/TIMM FAIR      59  45  58 CALM      30.20S
RACINE         FAIR      56  52  86 CALM      30.21S
BURLINGTON     FAIR      57  54  88 CALM      30.19S
KENOSHA        FAIR      55  49  80 CALM      30.20R
FOND DU LAC    FAIR      62  55  77 S7        30.17S
SHEBOYGAN      FAIR      56  51  84 SW5       30.18S
WEST BEND      FAIR      55  52  88 CALM      30.19S
JUNEAU         FAIR      62  57  84 CALM      30.19R
$$

LSZ147-162-240600-
LAKE SUPERIOR

STATION/POSITION TIME  TEMP    WIND        PRES    WAVE
                       AIR SEA DIR/SP/G            HT/PER
                 (UTC) (F)     (DEG/KT/KT) (MB)    (FT/S)
W MID LAKE BUOY  0450   39 36  350/  6/  8 1019.4S   0
DEVILS ISLAND    0500   44      40/  5/  6 1019.7F
SAXON HARBOR     0440   56      CALM  /  1 1018.6S
$$

LMZ867-665-643>646-240600-
LAKE MICHIGAN

STATION/POSITION TIME  TEMP    WIND        PRES    WAVE
                       AIR SEA DIR/SP/G            HT/PER
                 (UTC) (F)     (DEG/KT/KT) (MB)    (FT/S)
N MID LAKE BUOY  0450   42 37  180/ 10/ 12 1021.0S   1
NORTHPORT PIER   0440   52      CALM  /  2 1020.7R
KEWAUNEE LAKESHO 0442   66     230/  8/ 11 1020.5R
SHEBOYGAN LAKESH 0500   62     200/  7/  7 1021.8S
PORT WASHINGTON  0440   54      CALM  /  1 1023.0S
ATWATER BUOY     0407   53 49  170/  2/  2 1022.2    0
MILWAUKEE LAKESH 0450   65     210/  6/  6   N/A
S MID LAKE BUOY  0450   51 39  140/  6/  6 1022.9R   0
KENOSHA   LAKESH 0500   57                 1022.4
$$

TC  - TEMPERATURE IN CELSIUS
VSB - VISIBILITY IN STATUTE MILES
WCI - WIND CHILL INDEX
HX  - HEAT INDEX





USA.gov is the U.S. government's official web portal to all federal, state and local government web resources and services.